This is the latest recevied weather packets stored in our database for station/object WR9A-13. If no packets are shown the sender has not sent any weather packets the latest 10 day(s).
| Time | Temp. | Humidity | Pressure | Rain* | Wind** | Luminosity | Snow |
|---|---|---|---|---|---|---|---|
| 1778104226 | 14.44° C | 48% | 1014.6 hPa | 0 mm | - | - | - |
| 1778103934 | 14.44° C | 47% | 1014.7 hPa | 0 mm | - | - | - |
| 1778103630 | 14.44° C | 47% | 1014.7 hPa | 0 mm | - | - | - |
| 1778103316 | 15° C | 48% | 1014.8 hPa | 0 mm | - | - | - |
| 1778103028 | 15° C | 48% | 1014.7 hPa | 0 mm | - | - | - |
| 1778102716 | 14.44° C | 47% | 1014.7 hPa | 0 mm | - | - | - |
| 1778102432 | 14.44° C | 48% | 1014.7 hPa | 0 mm | - | - | - |
| 1778102120 | 14.44° C | 49% | 1014.6 hPa | 0 mm | - | - | - |
| 1778101818 | 14.44° C | 47% | 1014.6 hPa | 0 mm | - | - | - |
| 1778101526 | 15° C | 48% | 1014.7 hPa | 0 mm | - | - | - |
| 1778101218 | 15° C | 49% | 1014.7 hPa | 0 mm | - | - | - |
| 1778100935 | 14.44° C | 49% | 1014.7 hPa | 0 mm | - | - | - |
| 1778100622 | 15° C | 47% | 1014.7 hPa | 0 mm | - | - | - |
| 1778100338 | 15° C | 47% | 1014.6 hPa | 0 mm | - | - | - |
| 1778100025 | 15° C | 48% | 1014.5 hPa | 0 mm | - | - | - |
| 1778099741 | 15° C | 48% | 1014.6 hPa | 0 mm | - | - | - |
| 1778099429 | 15° C | 49% | 1014.8 hPa | 0 mm | - | - | - |
| 1778099127 | 15° C | 52% | 1014.7 hPa | 0 mm | - | - | - |
| 1778098832 | 15° C | 50% | 1014.8 hPa | 0 mm | - | - | - |
| 1778098529 | 15° C | 52% | 1014.9 hPa | 0 mm | - | - | - |
| 1778098217 | 14.44° C | 48% | 1014.9 hPa | 0 mm | - | - | - |
| 1778097934 | 15° C | 49% | 1014.9 hPa | 0 mm | - | - | - |
| 1778097617 | 15° C | 47% | 1014.9 hPa | 0 mm | - | - | - |
| 1778097334 | 15° C | 49% | 1015 hPa | 0 mm | - | - | - |
| 1778097021 | 14.44° C | 47% | 1015 hPa | 0 mm | - | - | - |
* Rain latest hour (hover to see other rain measurements)
** Current wind speed in m/s (hover to see current wind gust speed)